EW0107 Weather Reports


Display with metric or nautical units.
time (UTC)temp
F
wind
direction
speed
MPH
gust
MPH
rain 1hr
in
rain 24hr
in
rain mn
in
humidity
%
barometer
mb
20260504120132 0 0.0 0.0 0.00 0.00 0.00 1000.1
20260504081538 0 0.0 0.0 0.00 0.00 0.00 1000.7
20260504050013 0 0.0 0.0 0.00 0.00 0.00 1003.9
20260504044512 0 0.0 0.0 0.00 0.00 0.00 1003.8
20260504043009 0 0.0 0.0 0.00 0.00 0.00 1003.9
20260504041559 0 0.0 0.0 0.00 0.00 0.00 1004.2
20260504040054 0 0.0 0.0 0.00 0.00 0.00 1004.5
20260504034546 0 0.0 0.0 0.00 0.00 0.00 1004.8
20260504033034 0 0.0 0.0 0.00 0.00 0.00 1004.9
20260504031530 0 0.0 0.0 0.00 0.00 0.00 1005.1
20260504030029 0 0.0 0.0 0.00 0.00 0.00 1005.1
20260504024521 0 0.0 0.0 0.00 0.00 0.00 1005.0
20260504023016 0 0.0 0.0 0.00 0.00 0.00 1004.9
20260504021512 0 0.0 0.0 0.00 0.00 0.00 1004.9
20260504020007 0 0.0 0.0 0.00 0.00 0.00 1005.0
20260504014554 0 0.0 0.0 0.00 0.00 0.00 1004.9
20260504013052 0 0.0 0.0 0.00 0.00 0.00 1004.9
20260504011542 0 0.0 0.0 0.00 0.00 0.00 1005.0
20260504010049 0 0.0 0.0 0.00 0.00 0.00 1005.1
20260504004542 0 0.0 0.0 0.00 0.00 0.00 1005.2
20260504003029 0 0.0 0.0 0.00 0.00 0.00 1005.3
20260504001532 0 0.0 0.0 0.00 0.00 0.00 1005.5
20260504000021 0 0.0 0.0 0.00 0.00 0.00 1005.6
20260503234504 74 50 0.0 1.0 0.00 0.00 0.00 30 1005.7
20260503233002 75 44 0.0 1.0 0.00 0.00 0.00 29 1005.9
20260503231501 75 86 0.0 0.0 0.00 0.00 0.00 29 1006.0
20260503230113 75 44 0.0 1.0 0.00 0.00 0.00 30 1006.1
20260503224607 76 52 0.0 1.0 0.00 0.00 0.00 28 1006.1
20260503223112 76 82 0.0 1.0 0.00 0.00 0.00 28 1006.2
20260503221557 77 63 0.0 1.0 0.00 0.00 0.00 28 1006.4
20260503220054 77 68 0.0 0.0 0.00 0.00 0.00 28 1006.6
20260503214549 77 45 0.0 0.0 0.00 0.00 0.00 28 1006.8
20260503213035 76 26 0.0 1.0 0.00 0.00 0.00 28 1007.0
20260503211519 76 9 0.0 1.0 0.00 0.00 0.00 28 1007.2
20260503210019 76 13 0.0 1.0 0.00 0.00 0.00 29 1007.5
20260503204524 76 32 0.0 0.0 0.00 0.00 0.00 29 1007.8
20260503203014 76 105 0.0 2.0 0.00 0.00 0.00 30 1008.0
20260503201509 76 15 0.0 1.0 0.00 0.00 0.00 29 1008.3
20260503200007 76 13 0.0 1.0 0.00 0.00 0.00 29 1008.5
20260503194506 75 78 0.0 1.0 0.00 0.00 0.00 30 1008.6
20260503193005 75 10 0.0 5.0 0.00 0.00 0.00 29 1008.8
20260503191557 74 36 0.0 3.0 0.00 0.00 0.00 30 1008.9
20260503190048 75 12 0.0 1.0 0.00 0.00 0.00 31 1009.1
20260503184546 74 14 0.0 2.0 0.00 0.00 0.00 31 1009.3
20260503183052 74 17 0.0 3.0 0.00 0.00 0.00 31 1009.5
20260503181557 73 44 0.0 1.0 0.00 0.00 0.00 31 1009.8
20260503180047 73 11 0.0 1.0 0.00 0.00 0.00 30 1010.2
20260503174534 73 34 0.0 6.0 0.00 0.00 0.00 31 1010.4
20260503173031 72 17 0.0 3.0 0.00 0.00 0.00 33 1010.5
20260503171529 72 349 0.0 2.0 0.00 0.00 0.00 33 1010.5